Temp
19 19 19 19 20 20 19 19 18 18 18 17 17 17 17 17 17 17 17 17 17 17 18 18 19 19 18 17 17 17 17 17 17 17 17 17 18 18 18 18 18 18 18 18 18 18 18 18 19 19 18 18 18 18 19 18 19 19 18 17 18 17 17 16 16 16 16 15 15 15 15 15 15 15 15 16 15 15 15 15 15 15 15 15 15
19 18 18 18 19 18 18 18 18 18 17 17 17 17 17 17 17 17 17 17 17 18 18 18 19 19 19 18 17 18 18 17 17 17 17 17 17 17 17 17 18 18 18 18 18 18 18 18 18 18 18 18 18 18 19 18 18 18 18 16 17 17 16 16 16 16 15 15 15 15 15 15 15 15 15 15 15 15 15 15 15 15 15 15 15
18 18 17 17 17 17 17 17 18 18 17 17 17 17 17 17 17 17 17 17 17 18 18 17 18 19 19 18 17 17 17 17 17 17 17 17 17 17 17 17 17 18 18 18 18 18 18 18 18 18 18 18 18 19 18 18 18 18 18 17 16 17 16 16 16 16 16 15 15 15 15 15 15 15 15 15 15 15 15 15 15 15 15 15 15
18 17 17 17 17 17 16 17 17 18 17 16 17 17 17 17 17 17 17 17 18 17 17 18 18 19 18 18 17 17 17 17 16 16 17 17 17 17 17 17 17 17 18 18 18 18 18 18 18 18 18 18 19 19 18 18 18 18 18 17 17 16 15 15 16 16 16 16 15 15 15 15 15 15 15 14 14 15 15 15 15 15 15 15 15
18 17 17 17 16 16 16 17 17 17 16 17 17 17 17 17 17 17 17 18 18 17 17 18 18 18 17 17 17 16 16 16 16 16 16 16 16 16 17 17 17 17 18 18 18 18 18 18 18 18 18 18 18 19 19 18 18 18 18 17 17 17 16 15 16 16 17 17 17 16 15 15 15 15 15 14 14 15 15 15 15 15 15 15 15
18 17 17 16 16 16 17 17 16 16 16 16 17 17 17 17 17 17 17 18 18 17 18 18 18 18 17 16 16 16 16 16 16 16 16 16 16 16 16 16 16 17 17 18 18 18 18 18 18 18 18 18 18 18 18 18 18 18 17 17 17 18 17 15 16 16 17 17 18 18 17 17 16 15 15 15 14 14 14 14 15 15 15 15 15
18 17 17 16 16 16 16 17 17 16 16 16 16 17 17 17 17 17 17 18 18 18 18 18 18 17 17 16 16 16 16 16 16 16 16 16 16 16 16 16 16 17 17 17 17 18 18 18 18 18 18 18 18 18 18 18 18 17 17 17 17 18 17 16 16 16 16 17 18 18 18 18 17 15 15 15 15 15 14 14 15 14 15 15 15
17 17 16 16 16 16 16 16 16 16 16 16 16 16 17 17 17 17 17 17 18 18 17 17 17 17 17 16 16 16 16 16 16 16 16 16 16 16 16 16 16 17 17 17 17 17 18 18 18 18 18 18 18 18 18 18 18 18 17 17 17 17 17 17 17 17 16 17 17 17 18 18 17 17 16 15 15 15 15 14 14 14 15 15 15
17 16 16 15 15 15 16 16 16 15 15 16 16 16 17 17 17 17 17 17 17 17 17 17 17 17 16 15 16 16 15 15 16 16 16 16 16 16 16 16 16 16 16 17 17 17 17 18 18 18 18 18 18 18 18 18 18 18 18 18 18 18 18 18 18 17 17 17 17 17 18 17 16 17 16 16 16 15 15 15 14 14 14 14 15
17 17 16 15 15 16 16 16 16 16 16 16 16 16 16 17 17 17 17 17 17 17 17 17 16 16 15 15 15 15 15 15 16 16 16 16 15 15 15 16 16 16 16 17 17 17 17 18 18 18 18 18 18 18 17 18 18 18 18 18 18 18 18 18 18 18 18 18 17 17 17 16 16 16 16 16 16 15 15 15 14 14 14 14 14
16 16 16 15 16 16 16 16 16 17 17 17 17 17 16 16 16 17 17 17 17 17 17 16 16 16 16 15 15 15 14 15 16 16 16 16 16 16 15 16 16 16 16 17 17 17 17 18 18 18 18 18 18 18 18 18 18 18 18 18 18 18 18 18 18 18 18 17 18 18 18 18 17 16 16 16 15 15 15 14 14 14 14 14 14
16 16 16 15 16 16 16 17 16 17 17 17 18 18 18 17 16 15 16 16 16 17 16 16 16 16 17 16 16 16 15 15 15 15 15 16 16 16 16 16 16 16 17 17 17 17 17 17 17 18 18 17 18 18 18 18 18 18 18 18 18 18 18 18 18 18 18 18 18 18 18 18 18 17 17 16 16 15 15 14 14 14 14 14 14
15 15 15 15 16 15 16 17 18 18 17 16 17 18 18 18 17 15 15 16 16 16 15 15 16 16 16 16 16 16 16 16 16 15 15 16 16 16 16 16 16 17 17 17 17 17 17 18 18 18 18 18 18 18 18 18 18 18 18 18 18 18 18 18 18 18 18 18 18 18 18 18 18 18 17 17 17 16 14 14 14 14 14 14 14
15 15 15 15 15 15 16 17 19 19 17 16 17 18 18 18 17 15 15 17 17 15 15 16 17 16 15 16 16 16 16 16 16 16 16 16 16 16 16 17 17 17 17 18 18 17 17 18 18 18 18 18 18 18 18 18 18 18 18 18 18 18 18 18 18 18 18 18 18 18 18 18 18 18 18 17 17 16 15 14 14 15 14 14 14
14 14 14 14 14 15 15 16 17 17 17 16 17 17 17 17 16 15 15 16 16 15 15 17 17 16 15 15 16 16 17 16 16 16 17 17 16 17 17 17 17 17 18 18 18 18 18 18 18 18 18 18 18 18 18 18 18 18 18 18 18 17 17 17 17 17 18 18 17 18 18 18 18 18 18 18 18 17 16 15 15 14 14 14 14
14 14 14 14 14 14 14 14 15 15 15 16 16 16 16 16 16 15 15 15 14 14 16 17 17 16 16 16 16 16 17 16 16 16 16 17 17 17 17 18 18 18 18 18 18 18 18 18 18 18 18 18 18 18 18 18 18 18 18 18 18 17 17 17 17 17 17 17 17 17 17 17 18 18 17 17 18 18 17 16 16 15 15 14 14
14 14 14 14 14 14 14 14 14 14 14 15 15 16 16 16 15 15 14 14 14 16 17 17 17 16 16 16 16 16 16 16 16 16 16 16 17 17 18 18 18 18 18 18 18 18 18 18 18 18 18 18 18 18 18 18 18 18 18 18 17 17 17 17 17 17 17 17 17 17 17 17 17 17 17 17 17 18 17 17 16 16 15 15 14
14 14 14 14 14 14 14 14 14 14 14 15 15 16 17 17 16 15 15 15 15 16 17 16 16 16 15 16 16 16 16 16 16 16 16 15 16 17 18 18 18 18 18 18 18 18 18 18 18 18 18 18 18 18 18 18 18 18 18 18 18 17 17 17 17 17 17 17 17 17 17 17 17 17 17 17 17 17 17 17 17 17 16 16 15
14 14 14 14 14 14 14 14 14 14 14 14 14 15 16 16 16 16 15 14 15 16 16 16 16 15 16 17 17 17 16 16 16 17 17 17 16 16 17 18 18 18 18 18 18 18 18 18 18 18 18 18 18 18 18 18 18 18 18 18 18 17 17 17 17 17 17 17 17 17 17 17 17 17 17 17 17 17 17 17 17 17 17 16 16
14 14 14 14 14 14 14 14 14 14 14 14 14 14 15 15 16 17 15 14 15 15 15 17 17 15 16 17 17 17 16 16 16 17 17 17 16 15 16 18 18 18 18 18 18 18 18 18 18 18 18 18 18 18 18 18 18 18 18 18 18 18 17 18 17 17 17 17 17 17 17 17 18 18 17 18 18 18 17 17 17 17 17 17 16
13 14 14 14 14 14 14 14 14 14 14 15 14 14 14 14 15 18 17 15 16 16 15 17 16 15 16 16 16 16 17 16 16 17 17 17 17 16 16 18 18 18 18 18 18 18 18 18 18 18 18 18 18 18 18 18 18 18 18 18 18 18 18 18 18 17 17 17 17 17 17 18 18 18 18 18 18 18 18 18 17 17 17 17 17
13 13 13 13 14 13 14 14 14 14 14 14 14 14 14 14 14 16 16 16 16 15 15 15 15 15 15 15 16 16 16 16 16 17 17 18 18 16 16 18 18 18 18 18 18 18 18 18 18 18 18 18 18 18 18 18 18 18 18 18 18 18 18 18 18 18 17 17 17 18 18 18 18 18 17 18 18 18 18 18 18 17 17 17 17
13 13 13 13 13 13 13 13 13 13 13 13 13 14 14 14 14 14 14 14 15 15 14 14 15 15 15 15 16 16 17 17 17 17 17 17 18 17 17 18 18 18 18 18 18 18 17 18 17 17 18 18 18 18 18 18 18 18 18 18 18 18 18 18 18 18 18 18 18 18 18 18 18 18 17 18 18 18 18 18 18 18 18 18 18
12 12 12 12 12 12 13 13 12 13 12 12 12 13 14 14 14 14 14 14 14 14 14 14 15 15 15 16 16 17 17 17 16 17 17 17 17 18 18 18 18 18 18 18 18 17 17 17 17 18 18 18 18 18 18 18 18 18 18 19 19 19 19 19 18 18 18 18 18 18 18 18 18 18 18 18 18 19 19 19 19 18 18 18 18
12 11 11 11 11 12 12 12 12 12 12 12 12 12 13 13 14 15 15 15 14 14 14 14 15 15 15 16 16 17 17 17 16 17 17 17 18 18 18 18 18 18 18 18 18 17 17 17 17 18 18 18 18 18 18 18 18 19 19 19 19 19 19 19 19 18 18 18 18 18 18 18 18 18 18 18 19 19 19 19 19 19 18 19 18
11 11 11 11 11 11 11 12 12 12 11 11 11 11 11 12 13 14 14 14 14 14 14 14 14 14 15 15 16 16 16 16 16 17 17 18 18 18 18 18 18 18 18 18 18 17 17 17 17 18 18 18 18 18 18 18 19 19 19 19 19 19 19 19 19 18 18 18 18 18 18 18 18 18 18 18 19 19 19 19 19 19 19 19 18
10 10 11 11 11 11 11 11 11 11 11 11 11 11 11 11 12 13 13 13 14 14 14 14 14 14 14 14 15 15 15 16 16 17 17 17 18 18 18 18 18 18 18 18 18 17 18 18 18 18 18 18 18 18 18 18 18 19 19 19 19 19 19 19 18 18 18 18 18 18 18 18 18 18 18 18 19 19 19 19 19 19 19 19 18
10 10 10 10 10 11 11 11 11 11 11 10 11 11 11 11 12 12 12 13 13 13 13 13 14 14 14 14 14 13 14 15 15 15 16 17 18 18 18 18 18 18 18 18 18 18 18 18 18 18 18 18 18 18 18 18 18 19 19 19 19 19 19 18 18 18 18 18 18 18 18 18 18 18 18 18 18 18 18 18 18 18 18 18 18
9 9 9 9 10 10 11 11 10 10 10 10 10 10 11 11 11 12 12 12 13 13 13 13 14 14 14 14 14 13 14 14 14 15 16 17 18 18 18 18 18 18 18 18 18 18 18 18 18 18 18 18 18 18 18 18 18 18 19 19 19 19 19 18 18 17 17 17 18 18 18 17 18 17 18 18 18 18 18 18 17 17 18 18 18
8 8 8 9 9 10 10 10 10 10 10 10 10 10 10 10 11 11 12 12 12 12 13 14 14 14 14 14 14 14 15 14 14 15 16 16 17 18 18 18 18 18 18 18 18 18 18 18 18 18 18 18 18 18 18 18 18 18 19 18 18 18 18 18 18 17 17 17 17 17 17 17 18 17 17 17 17 17 17 17 17 17 17 17 17
7 7 8 8 9 10 10 10 10 10 10 10 10 10 10 10 10 11 11 12 12 12 13 13 13 14 14 14 15 15 15 14 14 15 16 16 17 18 18 18 18 18 18 18 18 18 18 17 17 17 17 18 18 18 18 18 18 18 18 18 18 18 18 18 18 17 17 17 17 17 17 17 17 17 17 17 17 17 17 17 17 17 17 17 16
7 7 7 7 8 9 9 9 9 10 10 10 10 10 10 10 10 10 10 11 12 12 12 12 13 13 14 14 15 15 15 15 15 15 15 16 17 18 17 18 18 17 17 17 17 17 17 17 17 17 17 17 17 17 17 18 18 18 18 18 17 17 17 17 17 17 17 17 17 17 17 17 17 17 17 17 17 17 17 17 17 17 17 17 16
6 6 6 7 7 8 9 9 9 9 9 10 10 10 10 9 9 10 10 11 11 11 12 12 12 12 13 14 15 15 15 14 15 15 15 15 16 17 17 17 17 17 17 17 16 16 16 16 16 16 16 16 16 16 17 17 17 18 18 17 17 17 17 17 16 17 17 16 16 16 16 16 16 16 16 16 16 16 16 16 16 16 16 16 16
6 6 6 6 7 8 8 9 9 9 9 10 10 10 10 9 9 10 10 11 11 11 11 11 12 12 11 12 13 14 14 13 14 15 15 15 16 16 16 16 16 16 16 16 15 15 15 15 16 16 16 16 16 16 16 16 16 17 17 17 16 16 16 16 15 15 15 15 16 16 16 16 15 16 16 16 16 16 16 16 16 16 16 16 16
5 6 6 6 6 7 8 8 9 9 9 9 9 9 9 9 9 10 10 10 10 10 10 10 11 11 11 11 12 13 13 13 13 14 14 14 14 14 14 14 15 15 15 15 15 15 15 15 15 16 16 16 16 16 16 16 16 16 16 16 16 15 15 15 15 15 15 15 15 15 15 16 16 15 15 15 15 15 15 15 15 15 15 15 15
5 5 5 6 6 7 7 8 8 9 9 9 9 9 9 9 9 9 9 9 10 10 10 10 10 11 11 11 11 12 12 12 13 13 13 13 13 13 13 13 14 14 14 14 14 14 15 15 15 15 15 15 15 15 15 16 16 16 16 16 16 15 15 15 15 15 15 15 15 15 15 15 15 15 15 15 15 15 15 15 14 15 15 15 14
5 6 6 6 7 7 7 8 8 8 9 9 9 9 9 9 9 9 9 9 9 9 9 9 9 10 11 11 11 12 12 12 12 13 13 13 12 13 13 13 13 13 13 14 13 13 13 13 13 14 14 14 14 14 15 15 15 16 16 16 15 15 15 15 15 15 15 15 15 15 15 15 15 14 14 13 13 14 14 14 14 14 14 14 13
5 6 6 7 7 7 7 8 8 8 8 8 9 8 9 9 9 9 9 9 9 9 9 9 9 9 10 11 11 11 12 12 12 12 12 12 12 12 12 12 13 13 13 13 13 12 12 12 13 13 13 13 13 13 14 14 15 15 15 15 15 15 14 14 14 13 14 14 14 14 13 13 13 13 13 12 13 13 13 13 13 13 13 13 13
5 5 6 7 7 7 7 8 8 8 8 8 8 8 8 8 8 8 8 9 9 9 9 9 9 9 10 10 11 11 11 11 12 12 12 12 13 13 12 12 12 12 12 12 12 12 12 12 13 13 12 12 12 12 13 14 14 14 14 14 15 15 14 13 12 12 12 12 12 12 12 12 12 12 12 12 12 12 13 13 13 13 12 12 12
5 5 5 6 6 7 7 7 7 7 8 8 8 8 8 8 8 8 8 8 9 9 9 9 9 10 10 10 10 10 11 11 11 12 12 12 12 12 12 12 12 12 12 12 12 12 11 11 11 11 10 11 11 11 12 12 13 13 13 14 14 14 13 11 11 11 11 11 11 11 11 11 11 11 11 12 12 12 12 12 12 12 12 12 12
5 5 5 5 6 6 7 7 7 8 8 8 8 8 8 8 8 8 8 8 9 10 10 10 10 10 10 10 10 9 10 10 10 11 11 11 11 12 12 12 12 12 11 10 10 10 10 9 9 9 9 10 10 11 11 11 12 12 12 13 13 12 11 11 10 10 10 10 10 10 10 11 11 11 11 12 12 12 12 12 12 12 12 12 12
5 5 5 6 6 6 6 7 7 8 8 8 8 8 8 8 8 8 8 9 9 10 10 10 10 10 10 10 10 10 10 10 10 10 11 10 10 10 10 11 11 11 10 9 9 9 8 8 8 8 8 9 9 10 10 10 11 11 11 11 11 10 10 10 10 10 10 10 10 10 10 11 11 11 11 11 11 11 11 11 11 11 11 11 11
5 5 6 6 6 6 6 7 7 8 8 8 8 9 8 8 8 9 9 9 9 9 10 10 10 10 10 10 10 10 10 10 10 10 10 9 9 9 9 9 9 9 9 8 7 7 7 7 7 7 8 8 9 9 9 10 10 10 10 11 10 10 10 10 10 10 10 10 10 10 11 11 11 11 11 10 10 10 10 10 11 10 10 10 10
6 6 6 6 6 6 6 7 7 8 8 8 8 9 9 9 9 9 9 9 9 9 10 10 9 10 10 10 10 10 10 10 10 10 9 9 9 9 8 8 8 8 7 6 6 6 6 6 6 6 7 8 8 8 9 9 9 9 10 10 10 10 10 10 10 10 10 10 10 10 10 10 10 10 10 10 10 9 10 10 10 10 9 9 9
6 6 6 7 7 7 7 7 8 8 8 8 8 8 9 9 9 9 9 9 9 9 9 9 9 9 9 10 10 10 10 10 10 10 9 9 9 9 8 8 8 7 7 6 6 6 6 6 6 6 6 7 7 8 8 8 8 9 9 9 9 9 9 9 9 9 9 10 10 10 9 9 9 9 9 9 9 9 9 9 9 9 9 9 9
7 7 7 7 7 7 7 7 7 8 8 8 8 8 9 9 9 9 9 9 9 9 9 8 9 9 9 9 10 9 9 9 9 10 9 9 9 9 8 8 8 7 7 6 6 6 6 6 6 6 6 7 7 8 8 8 8 8 8 8 8 8 8 8 8 9 9 9 9 9 9 9 9 9 9 9 9 9 8 8 8 8 8 8 8
7 7 7 7 7 7 7 7 7 8 8 8 8 8 9 9 9 9 9 9 9 9 9 8 8 8 9 9 9 9 9 9 9 9 9 9 9 9 8 8 7 7 7 6 6 6 6 6 6 7 7 7 7 7 7 7 8 8 8 8 8 8 8 8 9 9 9 9 9 9 9 9 9 9 9 8 8 9 8 8 8 8 8 8 8
7 7 7 7 7 7 7 7 7 7 8 8 8 8 8 9 9 9 9 9 9 9 9 9 9 8 8 8 8 8 8 8 8 8 8 8 8 8 8 7 7 7 7 7 7 6 6 6 6 7 7 7 7 7 7 7 7 7 7 7 7 7 8 8 9 8 8 8 8 8 8 8 8 8 8 8 8 8 8 8 8 8 8 8 8
6 7 7 7 7 7 7 7 7 7 8 8 8 8 8 9 9 9 9 9 9 9 9 8 8 8 8 8 8 8 8 8 8 7 7 7 7 7 7 7 6 6 7 7 6 6 6 6 6 6 6 6 6 6 6 7 7 7 7 7 7 7 7 8 8 8 8 8 8 8 8 8 7 7 7 7 7 7 7 7 7 7 7 7 7
7 7 7 7 7 7 7 7 7 7 7 7 7 7 8 8 9 9 9 9 9 8 8 8 8 8 8 8 8 7 7 7 7 7 6 6 6 6 6 6 6 6 6 6 6 5 5 5 5 5 5 5 5 6 6 6 6 7 7 7 6 6 7 7 7 7 8 8 7 7 6 6 6 6 6 6 6 6 6 6 6 7 7 7 7
7 7 7 7 7 7 7 7 7 7 7 7 7 7 7 8 8 8 9 9 9 8 8 8 8 7 7 7 7 7 7 7 7 7 6 6 5 5 5 5 5 5 5 5 5 5 4 4 4 4 4 5 5 6 6 6 7 7 7 6 6 6 6 6 6 7 7 6 6 5 5 5 5 5 4 4 4 5 5 5 5 5 6 6 6
Height
768 768 769 768 768 767 768 769 770 772 774 775 776 776 778 781 784 788 790 793 795 797 799 799 799 799 799 799 800 800 802 804 806 807 809 810 811 812 813 815 816 818 819 820 822 823 824 825 825 826 827 828 829 830 831 831 832 833 835 836 836 837 839 840 842 844 847 848 849 850 851 852 853 853 853 853 854 855 856 856 856 856 857 858 859
769 769 769 768 767 767 767 767 768 770 772 773 773 775 779 782 785 788 789 791 793 795 797 797 797 796 795 795 797 799 800 802 804 806 808 809 810 811 812 814 815 817 818 820 821 822 823 824 825 826 826 828 829 830 831 831 832 833 834 835 836 837 838 840 842 845 847 848 849 850 852 853 853 853 854 854 855 855 856 856 856 856 857 858 859
770 769 768 766 766 766 766 765 765 767 769 771 773 776 779 782 785 788 788 789 791 793 795 796 796 795 796 796 797 798 800 802 804 806 807 808 809 810 811 812 814 815 817 819 820 822 822 823 824 825 826 827 828 829 830 831 832 833 834 834 836 838 838 840 843 845 846 848 849 851 852 853 854 854 854 855 855 855 856 856 856 856 857 858 858
769 768 767 766 765 765 765 763 764 766 768 770 773 776 778 781 785 788 786 787 788 791 793 794 795 797 798 798 798 799 800 802 804 806 807 808 809 810 810 812 813 814 817 818 819 821 821 823 824 825 826 827 828 828 829 830 831 832 834 834 834 836 837 839 843 845 845 845 848 851 852 854 855 854 854 855 855 855 856 856 856 856 857 858 858
766 767 766 765 764 764 764 763 764 765 767 769 771 775 777 780 784 787 784 784 786 789 791 793 795 796 797 798 799 799 800 802 804 805 806 807 809 809 810 811 811 813 815 817 818 820 821 822 823 824 826 827 828 828 829 830 830 832 833 834 834 834 835 839 842 844 844 843 844 847 851 853 854 853 853 855 856 856 856 856 856 857 857 857 858
763 764 764 764 765 766 767 766 765 766 767 770 773 775 778 780 783 786 783 781 784 787 789 791 793 794 795 797 797 798 799 800 802 804 805 806 808 808 809 810 810 812 814 816 817 818 820 821 823 824 826 826 827 828 828 829 830 831 833 834 835 834 835 838 841 842 843 844 843 844 845 848 849 851 854 856 856 856 857 857 857 857 857 858 858
765 766 766 765 767 767 767 767 768 770 774 776 777 778 779 781 782 783 782 780 782 784 787 789 791 793 794 795 797 798 798 799 801 803 804 806 807 808 808 809 810 811 813 815 816 818 819 821 822 824 825 826 827 827 828 829 830 832 833 834 835 835 835 838 839 841 842 843 843 843 843 844 845 847 851 853 855 857 856 857 857 857 858 858 858
766 768 770 771 773 774 774 775 778 782 786 786 784 783 782 782 782 781 782 781 781 783 785 787 789 791 793 795 797 798 799 799 801 803 804 805 806 806 807 808 809 810 812 814 815 817 819 820 822 823 825 826 826 827 828 829 830 832 833 834 834 835 836 837 838 839 841 842 842 843 843 844 844 845 847 849 852 855 856 856 857 857 858 858 859
771 775 778 779 780 780 781 782 784 788 789 789 789 788 786 785 784 782 782 782 782 783 784 786 789 792 795 797 798 799 800 801 801 802 803 804 805 805 806 807 809 810 813 814 815 817 819 820 821 823 824 825 826 827 828 829 830 831 832 833 834 835 836 837 838 839 840 841 842 843 843 844 845 846 847 848 849 852 855 855 856 857 858 858 859
776 778 780 779 778 778 779 780 782 783 785 786 788 789 790 789 787 785 784 784 784 785 786 788 791 794 797 799 799 799 802 803 802 802 802 803 804 805 806 808 809 811 813 815 816 817 819 820 821 822 824 825 826 826 827 829 830 831 832 833 834 835 836 837 838 839 840 841 842 842 842 843 845 846 847 848 848 850 852 854 855 856 857 858 859
778 780 781 780 780 779 779 778 778 778 779 780 782 785 788 789 789 788 786 786 786 788 789 789 791 794 794 795 795 796 800 804 802 800 800 802 804 805 806 808 809 811 813 814 816 817 818 819 821 822 824 825 826 826 827 828 829 831 832 833 834 834 835 836 838 839 840 841 842 842 842 842 842 844 845 846 847 848 850 853 855 856 857 858 858
780 782 783 782 782 781 780 779 777 776 776 777 777 778 781 784 788 791 790 789 789 789 789 789 791 791 790 790 791 792 796 801 802 801 799 800 802 804 806 808 809 811 812 814 815 816 817 819 820 822 823 825 825 826 827 828 830 831 831 832 833 834 835 836 837 838 839 840 841 842 842 842 842 843 843 845 846 847 849 852 854 855 857 858 858
784 786 785 784 783 782 781 779 777 775 776 778 777 775 776 778 783 789 791 789 788 789 789 790 791 790 790 790 790 791 793 796 798 800 799 799 801 803 805 807 808 810 812 813 814 816 817 818 820 821 823 824 825 826 827 828 829 830 831 832 833 834 835 835 836 837 838 839 840 841 842 842 843 843 843 845 846 847 848 851 854 855 856 857 859
787 788 787 786 786 783 781 778 775 774 776 778 777 775 776 777 780 785 787 785 785 787 788 789 789 789 792 792 790 790 791 792 794 797 799 800 801 803 804 806 807 809 811 812 814 815 816 818 819 821 822 823 824 825 826 828 829 830 831 832 833 834 835 835 836 837 838 839 840 841 842 842 843 843 844 844 845 846 847 849 852 855 856 857 859
789 789 789 789 788 785 782 778 775 774 775 776 775 773 773 775 779 784 786 785 784 786 788 788 788 790 792 792 789 788 789 792 794 796 798 800 802 804 805 806 807 808 810 811 813 814 816 818 819 820 821 822 823 825 826 827 828 829 830 831 832 833 834 835 836 837 838 839 840 841 841 842 842 843 843 844 844 845 846 847 848 851 856 858 858
792 791 791 790 789 786 783 780 776 775 777 776 774 772 771 773 777 782 786 788 787 787 788 787 787 789 789 788 788 788 789 793 795 797 799 801 803 805 806 807 808 809 810 811 813 814 816 817 819 820 821 822 823 824 826 827 828 829 830 831 832 833 834 835 836 837 838 839 840 840 841 841 842 842 843 844 844 844 845 846 846 847 851 855 858
794 794 792 791 789 787 784 781 778 777 778 776 774 772 772 773 776 780 784 789 789 787 784 782 783 785 787 787 787 788 790 792 794 796 800 803 805 806 807 808 809 810 811 812 814 815 816 818 819 820 821 822 824 824 825 827 828 828 829 831 832 833 834 835 836 837 838 839 839 840 840 841 841 842 843 844 844 844 845 845 846 846 846 850 855
796 795 794 792 790 788 786 783 780 779 779 777 775 773 770 770 774 777 780 783 785 784 781 782 784 786 787 787 787 788 790 791 792 793 798 802 805 806 807 809 810 812 813 814 815 816 817 819 819 820 822 823 824 824 826 827 827 828 830 831 832 833 834 835 836 837 837 838 839 839 840 840 841 842 843 844 844 844 845 845 846 847 846 847 850
797 795 794 793 791 790 788 786 783 781 781 779 776 774 770 769 770 773 777 779 779 781 781 782 786 787 787 787 786 787 789 791 792 793 796 799 802 805 807 808 810 811 813 814 816 817 818 819 820 821 822 823 824 825 826 826 827 828 829 830 832 833 834 835 835 836 837 838 839 839 840 840 841 842 843 844 844 844 845 846 846 847 847 847 848
797 796 796 794 793 792 789 787 785 783 782 780 778 776 773 773 770 768 773 777 775 778 779 780 784 787 787 786 785 787 788 791 793 795 797 798 801 806 806 806 808 810 811 813 815 816 817 818 819 820 821 822 824 825 826 826 827 828 829 830 831 833 834 835 835 836 837 838 838 839 840 840 841 842 842 843 844 844 845 846 846 847 848 849 849
799 797 797 796 794 793 790 789 787 784 783 782 781 779 777 777 773 766 769 772 772 774 777 778 782 785 786 785 785 786 788 790 792 794 797 797 800 805 806 805 806 808 810 812 813 815 816 818 819 820 821 822 823 824 826 827 827 829 830 831 832 833 834 835 836 837 837 838 839 839 840 841 841 842 842 843 843 844 845 846 846 848 849 850 851
801 800 799 798 796 795 793 791 789 787 787 785 784 783 780 779 777 772 770 771 771 773 775 778 781 784 784 784 784 786 787 790 791 793 795 795 797 802 805 804 806 808 809 811 813 815 816 818 819 820 821 822 823 824 826 827 828 829 830 831 832 833 834 835 836 837 837 838 839 839 840 840 841 842 842 843 844 844 845 846 846 848 849 850 851
803 802 801 801 800 798 796 794 793 791 790 789 787 785 784 782 780 778 777 776 776 777 778 779 781 782 783 783 784 785 787 789 790 791 793 794 795 800 803 804 805 807 809 811 813 815 816 817 818 820 821 822 823 824 826 827 828 829 830 831 832 833 834 835 836 836 837 838 839 840 840 840 841 842 843 844 844 844 845 845 846 847 848 849 851
806 805 804 804 802 801 799 797 796 794 793 791 789 787 786 785 783 781 779 779 780 781 781 780 780 781 781 782 783 784 786 787 789 789 791 793 796 799 802 803 805 807 809 811 813 814 815 817 818 819 821 822 823 824 826 827 828 830 831 831 832 833 834 835 836 836 837 838 839 839 840 841 841 842 843 844 844 844 844 844 845 846 847 848 849
809 808 807 806 805 804 803 801 799 797 795 794 792 790 788 787 786 784 781 781 781 782 781 780 780 780 780 780 781 783 784 786 787 788 790 793 795 798 801 803 805 808 810 811 813 814 815 816 818 819 821 822 823 825 826 828 829 830 831 831 832 833 834 835 836 836 837 838 839 840 840 841 842 843 843 843 843 843 843 843 844 844 846 847 848
814 812 811 810 809 807 806 803 801 799 797 796 795 793 792 790 789 787 786 785 783 782 781 780 780 779 780 780 781 782 784 786 787 789 790 793 795 798 801 803 805 807 810 811 813 814 815 817 818 820 821 822 823 825 827 828 829 830 831 832 832 833 834 835 836 837 838 838 839 840 841 842 843 843 844 844 843 843 843 843 844 844 845 846 847
818 816 814 813 811 810 808 806 803 801 799 798 797 796 794 793 790 789 789 787 785 783 782 780 780 780 781 782 782 784 786 788 789 789 791 793 795 798 800 803 805 808 809 811 813 814 816 817 819 820 821 822 823 825 827 828 830 831 832 832 832 832 834 835 836 837 838 838 839 840 841 842 843 843 844 844 844 844 845 845 845 845 845 846 847
820 818 817 816 814 813 811 808 806 803 801 799 798 797 796 794 792 790 788 787 785 784 783 782 782 783 784 785 786 788 789 791 793 793 793 795 796 799 801 803 806 808 809 811 813 814 815 817 819 820 821 822 824 825 826 828 829 831 832 833 832 833 834 835 836 837 838 839 839 840 841 841 842 843 843 844 845 845 846 846 846 847 847 847 847
822 821 820 819 817 816 814 811 809 806 804 802 800 799 797 796 794 791 789 787 785 783 783 783 782 783 785 786 788 791 792 794 797 797 797 798 799 800 802 804 806 808 810 812 813 814 815 816 818 820 821 823 824 825 827 828 829 831 832 833 833 833 834 835 836 838 839 839 840 840 841 842 842 843 844 844 845 846 846 846 847 848 848 849 849
825 824 823 822 820 819 817 815 812 810 808 806 803 801 800 798 795 793 790 788 786 783 783 783 783 783 785 786 788 791 792 794 796 797 798 800 801 802 803 805 807 808 810 811 812 813 815 816 818 820 822 823 824 826 827 828 829 831 832 833 834 834 835 836 837 838 839 840 841 841 842 842 843 843 844 845 846 846 846 846 847 847 848 850 850
828 826 825 823 822 821 819 817 816 814 812 810 807 805 802 800 797 795 792 790 787 785 783 784 785 785 786 786 788 790 791 793 796 797 799 801 802 803 804 805 807 808 809 810 811 813 815 817 819 820 822 824 825 826 828 829 830 831 832 833 834 835 836 837 838 839 840 840 841 842 843 843 844 844 845 845 846 846 846 846 847 847 848 849 850
830 828 827 825 824 822 821 819 818 816 815 813 811 809 806 804 801 798 796 793 790 788 786 787 787 787 786 786 788 790 792 794 796 797 800 801 802 803 804 805 806 808 809 810 812 814 816 818 819 821 822 824 826 827 828 829 830 831 832 833 835 836 837 838 839 840 840 841 842 843 844 844 845 845 846 846 846 846 846 846 847 848 848 848 849
833 832 829 827 826 825 823 822 820 819 818 816 814 812 810 808 805 802 799 796 794 792 791 790 791 790 788 787 788 790 792 794 795 796 799 801 802 802 803 805 806 808 810 811 813 815 817 819 820 821 823 825 827 829 830 830 831 831 832 834 835 837 838 839 840 841 841 842 843 843 844 845 847 847 846 846 846 846 846 846 847 847 848 848 848
835 834 832 830 828 826 825 823 822 821 820 818 816 815 813 811 807 804 801 799 797 796 795 794 794 794 792 790 790 790 793 796 797 797 799 802 802 802 803 804 806 808 810 812 815 817 818 820 821 822 824 826 828 830 831 831 832 832 833 834 835 838 839 840 842 842 843 843 844 844 844 845 846 846 845 845 846 846 846 846 846 847 847 847 847
837 835 834 832 830 828 826 825 824 823 822 820 818 817 814 812 809 807 804 802 801 800 799 799 798 797 796 795 794 793 794 797 799 799 800 802 803 804 805 805 806 809 811 814 816 818 820 821 823 823 825 826 828 830 831 832 833 833 834 834 835 838 840 841 843 844 844 843 843 843 844 845 845 845 845 845 845 845 845 845 846 846 846 846 846
839 838 836 835 832 830 829 827 826 825 823 822 821 819 816 814 812 810 808 806 804 803 802 802 801 800 800 800 799 798 798 799 800 800 801 803 804 806 807 808 808 810 813 815 817 819 820 822 823 824 825 826 828 830 831 832 833 834 834 835 837 839 841 842 843 843 843 842 842 843 843 844 845 845 845 844 844 844 844 845 845 845 845 845 845
840 839 838 836 835 833 831 830 828 826 824 823 822 820 818 816 814 812 810 809 807 806 806 805 804 803 803 803 803 802 802 802 802 801 803 805 807 808 810 811 811 812 815 817 818 820 822 823 825 826 827 827 828 830 831 832 833 834 834 836 838 839 840 841 842 842 842 842 842 843 843 844 844 844 844 844 844 844 844 844 845 845 845 845 845
841 840 839 838 837 835 833 832 830 828 826 825 823 822 819 817 816 815 813 811 810 810 810 808 807 807 806 806 805 805 805 805 805 805 805 807 810 812 813 815 815 814 816 819 820 822 824 826 826 827 829 829 830 831 832 833 833 834 835 836 837 838 839 841 841 841 841 842 842 843 843 843 843 844 844 844 844 844 844 844 845 845 845 845 845
842 841 840 840 839 837 835 834 832 830 829 827 825 823 821 819 818 817 815 814 814 814 813 812 811 810 809 809 808 808 808 808 808 809 808 809 812 814 815 817 817 817 818 820 822 823 824 826 827 830 832 833 832 833 833 833 834 835 836 836 836 837 838 840 840 840 841 842 843 843 843 843 844 844 844 845 845 845 845 845 845 845 845 845 845
843 843 842 842 841 838 837 836 834 833 832 830 828 825 823 822 821 820 818 817 817 817 816 815 814 812 811 811 810 810 811 810 810 811 811 812 813 815 817 818 818 818 819 822 824 824 826 828 831 834 835 835 834 834 834 834 835 835 836 836 836 837 838 839 840 840 841 842 843 843 844 844 844 845 845 845 845 845 845 845 845 844 844 844 844
845 845 844 843 842 841 839 838 837 835 834 832 829 827 826 825 824 823 822 821 821 820 818 817 816 814 813 813 813 812 812 812 813 813 813 814 815 816 817 818 819 820 822 824 826 827 829 832 835 836 836 835 835 835 835 836 836 836 837 837 837 838 839 839 839 840 841 842 843 844 844 844 845 845 845 845 845 845 845 845 844 844 844 844 844
846 845 845 845 844 843 842 840 839 837 836 834 831 829 829 829 827 826 825 824 823 822 821 820 818 817 816 815 815 815 815 815 816 815 816 817 818 818 819 820 821 822 824 826 828 829 831 834 836 837 837 836 836 836 836 837 838 838 839 839 839 839 840 840 840 840 842 843 843 844 844 845 845 845 845 845 845 845 845 844 844 844 844 843 843
847 846 846 845 845 845 844 842 841 839 838 836 833 832 832 832 830 829 829 828 826 825 824 823 822 820 819 819 819 819 819 819 819 819 819 820 821 821 822 823 823 825 826 828 830 832 833 835 837 838 838 838 838 838 838 839 839 839 840 840 840 840 840 841 841 841 842 843 843 844 844 844 845 845 844 844 844 844 844 844 844 844 843 843 843
849 848 847 846 846 847 846 845 844 842 840 838 836 834 835 834 834 833 832 831 829 828 827 826 826 824 823 823 822 822 822 822 822 822 822 823 824 825 825 826 827 828 830 832 833 834 834 835 838 839 839 839 840 839 839 839 839 840 840 840 840 840 841 841 841 841 842 842 843 843 843 844 844 844 844 844 844 844 844 844 844 844 844 844 843
849 849 849 848 848 848 848 848 847 844 842 840 838 837 837 837 837 836 834 833 832 831 830 829 829 828 827 826 826 825 826 826 826 826 826 826 827 828 828 830 830 831 833 835 836 837 837 838 839 840 841 841 841 840 840 840 840 840 840 841 841 841 841 842 841 841 842 842 842 843 843 843 843 843 844 844 844 844 844 844 844 844 844 844 843
850 850 850 849 849 850 849 849 848 846 844 843 841 840 839 839 839 838 837 836 834 833 832 832 831 831 830 830 829 829 829 829 829 829 829 829 830 831 832 833 834 835 836 837 838 839 840 840 841 842 842 843 842 841 841 841 841 842 841 842 842 842 842 842 842 842 842 842 842 843 843 843 843 844 844 844 844 844 845 845 845 844 844 844 844
851 851 851 851 851 851 850 850 850 848 847 845 844 843 842 842 841 840 840 838 837 835 835 835 834 834 833 832 832 832 832 832 832 832 833 833 834 834 835 836 837 838 839 839 840 841 841 842 843 843 843 843 843 842 842 842 842 842 842 842 843 842 842 842 842 842 842 842 842 843 843 843 844 844 844 844 844 845 845 845 845 845 845 845 845
852 852 852 852 852 852 852 852 851 850 849 847 846 845 844 844 843 843 842 840 839 839 838 838 837 837 836 836 836 835 835 835 835 835 836 836 837 837 837 838 840 841 842 842 842 843 843 843 843 844 844 843 843 843 843 843 843 843 843 843 843 842 842 842 842 842 843 843 843 843 843 844 844 844 844 844 845 845 845 845 846 846 846 846 846
854 854 854 853 853 853 853 853 853 852 850 849 848 847 846 845 845 844 843 842 842 841 841 841 840 840 840 840 839 839 838 838 838 838 839 839 840 840 840 841 842 843 844 844 844 844 844 844 844 844 845 844 844 844 844 844 844 844 844 844 843 843 843 843 843 843 843 843 843 843 844 844 845 845 845 845 846 846 846 847 847 847 847 847 846
855 855 855 855 855 854 854 854 854 853 852 851 850 849 848 847 847 846 845 844 843 843 843 843 843 843 844 843 843 843 842 842 842 842 842 842 843 843 843 843 844 844 845 845 844 845 846 846 846 845 845 845 845 845 845 844 844 845 845 845 844 844 844 844 844 844 844 843 844 844 845 846 846 846 847 847 848 848 848 847 847 847 847 847 846
856 856 857 856 856 856 856 855 855 855 854 853 853 852 851 850 849 848 847 846 845 844 844 845 846 846 846 846 846 846 846 846 846 846 846 845 846 846 846 846 846 846 846 846 846 846 847 847 847 846 846 846 846 846 845 845 845 845 845 845 845 846 845 846 846 845 845 845 846 846 847 848 848 848 849 849 849 849 848 848 848 847 847 847 847
Wind_Speed
12 17 21 25 27 26 25 25 23 22 22 24 27 29 30 30 27 25 25 27 27 25 23 22 23 24 25 27 25 23 23 22 21 22 21 21 20 19 20 20 20 19 19 19 19 20 20 20 19 19 18 16 16 16 15 14 14 13 16 19 18 18 18 17 18 19 17 12 11 11 9 8 8 8 9 9 9 9 11 13 14 13 11 10 9
10 13 17 22 24 24 26 26 26 25 24 26 29 29 29 29 28 27 27 28 28 27 25 24 24 25 27 28 26 23 22 22 21 21 21 20 20 20 21 21 21 20 19 19 19 20 20 19 19 18 17 16 15 16 15 15 16 16 18 21 19 20 22 21 21 18 13 11 11 9 7 7 6 6 8 8 8 8 9 11 13 13 13 13 11
9 10 14 20 22 24 26 27 28 27 26 27 29 27 26 27 27 29 30 30 29 28 27 27 27 26 25 23 22 21 21 20 19 20 20 20 20 21 22 23 23 21 20 19 19 19 19 19 18 17 16 17 16 17 16 16 18 17 18 22 20 20 20 22 23 17 13 15 12 6 3 4 4 4 6 7 7 8 9 10 11 11 13 13 13
12 11 12 15 20 21 22 25 27 26 26 27 27 26 25 25 25 28 30 30 30 29 28 29 29 27 23 17 17 18 18 18 17 16 19 20 20 21 22 23 23 22 21 20 19 19 20 19 18 17 17 17 16 17 17 18 19 18 19 23 23 21 19 21 22 15 16 19 10 3 2 2 1 2 4 4 5 7 8 10 10 10 12 12 12
14 13 11 12 15 18 19 23 25 25 27 28 28 27 25 24 24 26 29 30 30 30 29 28 27 26 22 16 14 14 13 15 17 17 18 20 20 21 21 22 22 22 22 20 19 20 21 19 17 16 17 17 15 16 17 18 19 19 20 23 23 23 21 23 22 15 17 19 11 6 4 1 2 4 5 3 4 7 7 8 8 9 10 10 10
12 12 11 10 11 13 15 18 21 24 26 26 26 26 24 23 23 25 29 30 30 30 28 27 27 26 21 17 16 15 14 15 19 20 20 20 21 21 20 20 21 21 21 21 20 21 21 18 16 16 17 16 15 14 16 18 19 19 21 21 21 23 22 24 23 17 18 16 10 8 4 2 6 9 5 1 3 7 6 6 8 9 10 9 10
7 8 9 9 10 12 14 17 21 20 16 16 19 23 23 20 21 24 28 30 30 29 28 28 27 25 22 20 19 18 17 17 18 19 20 20 19 20 20 19 19 20 20 20 20 20 19 17 16 16 16 15 14 14 15 17 18 19 19 19 19 21 22 24 23 19 19 15 11 9 4 4 12 14 7 3 3 4 6 7 8 9 10 9 10
7 7 5 3 2 1 2 6 7 5 8 6 8 17 21 18 19 24 26 27 28 29 29 29 28 26 23 19 17 17 17 17 16 15 17 17 17 18 19 19 19 20 19 18 18 17 16 15 15 16 15 14 14 16 15 16 17 17 17 17 17 19 22 24 22 21 22 16 11 10 7 6 15 15 11 9 5 2 4 5 7 9 10 10 10
4 4 4 6 9 11 11 9 10 15 18 17 12 10 14 15 17 21 22 24 25 26 28 27 26 24 20 16 16 15 15 14 15 14 15 16 15 16 17 18 19 18 18 16 15 15 15 14 15 16 15 15 15 16 16 16 16 16 16 16 18 20 21 21 20 23 23 18 12 10 7 11 14 11 13 13 7 4 3 3 5 8 8 10 10
7 7 6 8 11 10 6 3 3 5 7 10 13 12 11 13 16 18 18 20 23 23 24 23 20 19 16 15 16 15 14 13 14 15 15 15 14 14 16 18 19 17 16 15 14 14 14 15 16 16 16 16 16 16 16 16 16 15 15 15 17 18 19 18 18 21 21 18 15 12 11 15 13 8 12 13 8 5 3 4 7 7 6 8 9
7 6 6 8 10 8 6 6 6 8 8 5 5 6 8 12 12 14 15 16 19 21 21 20 19 18 18 18 18 18 16 15 13 16 16 15 15 15 15 18 19 17 15 14 13 14 15 15 16 16 17 17 16 16 15 16 16 15 15 15 15 15 17 17 16 18 18 17 16 15 15 19 16 11 16 17 11 7 5 5 8 8 8 8 8
8 6 5 6 7 5 4 5 7 11 9 7 9 11 11 9 8 7 7 10 15 18 19 18 19 19 20 21 19 19 19 17 15 17 18 18 18 18 17 18 18 17 15 15 14 14 14 15 16 17 18 17 16 15 14 15 15 15 15 15 14 14 15 16 16 17 17 16 17 16 17 20 18 15 19 21 16 15 13 8 8 10 7 7 9
7 5 5 5 5 5 2 3 7 13 10 5 6 11 15 15 8 7 11 13 16 17 16 17 19 20 22 22 19 18 21 21 19 18 20 21 20 20 20 20 19 18 17 17 16 15 15 16 17 18 17 16 15 15 14 15 15 15 14 14 14 14 14 15 16 16 15 16 17 16 17 19 16 14 17 19 17 19 19 12 10 11 7 7 10
6 5 5 4 3 3 4 6 8 12 11 7 6 9 13 14 9 8 14 18 17 15 15 18 21 22 24 23 20 20 23 23 22 21 20 22 22 22 22 22 21 20 19 19 17 16 16 16 17 17 17 15 14 15 15 15 15 14 13 13 14 15 15 15 15 14 13 15 17 15 15 17 16 14 17 19 18 20 21 18 13 9 8 10 9
5 4 4 3 1 0 3 5 5 7 8 10 9 9 11 11 9 8 12 15 13 13 15 18 21 22 23 22 21 22 23 22 21 21 21 22 22 22 22 22 21 20 20 19 18 17 17 17 17 16 16 15 14 15 16 15 14 13 13 12 13 14 14 14 13 13 12 13 14 14 14 16 15 14 17 20 19 19 23 25 21 10 6 7 5
5 4 3 4 6 6 5 4 4 3 6 12 13 11 9 6 6 7 10 10 7 14 16 17 19 21 22 22 21 21 21 20 19 18 20 22 22 22 21 20 20 20 20 19 19 19 19 18 17 16 16 16 15 15 17 16 14 13 12 11 12 13 13 13 13 13 13 13 12 12 13 15 14 13 15 18 18 20 23 27 26 18 10 5 3
6 6 5 6 8 9 9 7 6 5 5 11 12 11 9 6 4 5 6 5 8 15 19 20 19 21 21 21 21 21 20 18 17 17 17 19 20 21 20 19 20 20 19 19 19 19 19 19 17 17 17 16 15 15 17 16 14 13 12 11 12 12 12 12 12 12 13 13 12 12 13 13 13 11 13 15 17 20 25 26 26 25 19 10 4
7 6 6 6 8 10 10 8 8 7 1 6 9 10 10 8 8 11 12 13 15 19 21 20 19 20 21 21 20 21 19 18 19 19 19 19 19 20 22 21 20 20 20 20 20 19 20 19 18 18 18 16 15 14 16 15 14 12 12 11 11 12 12 11 11 12 13 13 13 13 12 12 12 12 13 15 17 20 24 26 25 25 23 16 11
6 6 5 6 8 10 11 9 7 6 7 6 4 5 8 11 12 12 13 16 16 19 20 19 19 21 23 23 21 21 21 21 21 20 22 23 20 20 24 24 22 23 22 21 20 20 20 19 18 17 16 14 13 13 14 15 14 13 12 11 11 11 11 11 10 11 12 13 13 13 12 12 13 12 13 14 17 20 23 25 24 24 23 19 18
7 7 6 6 8 11 11 11 9 9 10 9 6 5 3 10 12 12 12 17 16 18 20 19 20 23 22 21 21 22 22 21 20 20 22 25 22 20 23 26 25 24 23 22 21 19 19 18 16 16 15 14 14 13 13 14 14 13 13 13 12 12 11 11 10 10 10 11 12 13 13 13 13 13 13 13 16 19 21 23 24 24 22 19 19
8 8 7 8 11 14 14 14 14 13 12 10 8 8 7 8 8 12 19 23 20 21 23 21 22 23 20 19 21 22 21 20 20 22 24 26 23 21 24 26 25 25 25 23 21 19 18 16 15 16 16 15 15 15 14 15 15 15 14 13 13 12 11 10 10 10 10 10 12 13 13 13 13 12 11 12 15 17 19 22 23 23 23 21 19
8 8 8 9 13 16 16 16 17 16 15 13 11 10 9 8 7 8 17 21 22 23 23 21 23 22 19 18 20 21 21 21 22 24 25 25 24 25 26 27 26 25 25 23 21 19 16 15 16 17 16 15 16 16 15 16 16 14 13 13 12 12 12 11 10 10 10 10 12 13 13 12 13 12 12 11 12 14 16 20 22 22 23 24 21
8 8 9 11 14 16 17 18 18 19 18 18 18 15 11 8 4 3 6 9 14 18 19 18 20 20 19 19 20 21 22 22 23 25 24 24 27 29 29 29 27 25 23 21 20 18 17 18 18 16 15 15 16 17 16 15 14 13 13 12 11 11 13 12 11 11 11 11 11 12 12 12 11 11 11 9 10 11 11 16 20 20 22 24 24
8 8 9 12 15 16 17 17 17 17 19 20 21 19 13 7 3 3 4 5 7 10 13 16 19 20 19 20 21 21 23 24 25 27 28 28 31 32 31 28 26 24 22 20 17 17 19 20 18 16 16 16 17 18 17 14 12 12 11 10 11 12 13 12 12 12 11 11 12 12 12 11 10 10 8 6 7 8 8 11 16 18 18 22 26
9 9 9 11 13 13 13 14 16 17 18 19 20 20 16 9 3 4 6 5 6 8 11 14 19 20 20 22 24 23 25 26 28 30 31 32 34 32 29 27 26 24 21 18 17 18 21 21 18 18 17 16 17 16 15 13 11 10 10 10 12 13 13 12 13 13 12 11 11 12 12 10 9 8 5 2 3 6 7 9 12 14 15 19 24
9 9 9 9 10 11 13 13 15 17 18 19 20 19 18 13 5 5 6 6 5 6 9 12 17 18 17 22 25 25 26 27 30 32 31 31 31 30 28 26 26 24 20 19 20 21 21 20 18 18 17 15 15 13 12 12 11 10 10 9 11 13 13 13 13 12 11 10 11 12 11 9 7 5 4 4 5 6 6 8 9 11 14 17 21
8 8 8 9 9 11 14 14 15 17 18 19 19 19 19 17 12 10 10 9 7 7 7 8 11 12 13 18 21 22 23 23 27 31 29 28 28 26 26 26 24 23 22 21 22 22 20 19 18 17 16 15 14 12 12 12 11 10 10 8 9 12 15 15 13 12 12 11 12 12 10 8 7 7 8 8 8 8 8 8 9 11 11 14 17
8 8 9 9 9 9 12 14 15 17 19 20 20 20 20 20 17 16 15 11 8 8 8 6 6 6 6 10 13 15 17 17 21 24 25 26 26 24 25 26 24 24 22 20 21 21 20 20 19 18 17 15 14 13 13 14 12 11 10 10 11 15 17 17 15 14 14 13 13 12 11 10 10 11 11 9 8 8 9 9 9 9 9 12 14
9 10 9 8 8 9 11 14 15 16 18 20 20 21 21 20 19 18 17 15 12 9 7 5 5 4 3 6 9 10 11 14 16 19 21 23 24 24 24 24 23 23 21 19 20 21 22 22 21 19 18 17 15 15 15 14 13 12 12 13 16 17 18 18 18 16 15 15 15 14 13 12 11 11 10 9 7 7 8 9 8 7 6 7 9
9 9 8 7 8 10 12 14 15 16 17 18 19 20 20 20 20 19 19 18 15 9 4 4 5 6 5 8 12 10 11 15 17 20 21 19 20 24 23 21 23 24 21 18 19 21 22 22 21 20 19 17 16 16 15 14 13 15 16 17 17 18 19 19 20 19 17 16 15 14 12 10 9 8 8 7 6 5 4 4 4 5 5 5 5
8 8 8 7 8 11 13 14 14 15 16 16 17 18 19 20 20 19 19 20 19 12 3 3 8 11 11 11 14 14 14 16 17 21 21 17 19 23 22 21 23 23 20 18 18 19 21 22 22 21 19 17 16 16 15 15 16 17 18 17 17 18 20 20 20 19 17 16 14 12 11 8 6 5 4 3 3 2 1 1 1 2 3 3 3
8 8 8 7 8 11 13 14 15 15 15 15 16 18 19 19 18 18 19 21 22 20 14 8 6 10 14 14 14 16 17 17 19 22 19 15 19 23 22 22 23 20 19 19 19 21 23 24 23 22 20 19 18 17 18 18 17 16 16 16 17 18 18 17 17 16 15 12 11 9 6 3 1 1 1 1 1 1 2 2 2 2 2 2 2
7 7 7 7 9 11 13 15 16 16 15 14 14 16 17 17 18 19 21 23 24 24 21 17 14 12 14 17 18 17 17 17 19 20 17 16 20 23 22 22 23 22 22 22 23 25 26 26 25 24 23 22 21 20 20 20 18 18 18 17 17 16 16 15 13 12 10 8 7 5 4 3 4 4 2 2 3 3 3 4 4 4 3 3 2
6 6 7 8 10 12 14 16 17 17 17 16 15 15 15 16 19 21 23 24 25 25 24 21 17 14 14 17 19 20 19 17 17 19 20 20 23 24 25 26 27 27 27 27 27 27 26 25 25 25 24 23 21 19 19 20 20 19 19 18 17 15 13 12 9 8 7 5 5 5 4 4 4 4 3 3 4 4 5 5 5 5 5 5 5
6 6 8 11 12 14 14 15 16 16 17 18 17 16 17 19 21 23 23 24 25 25 25 23 19 16 16 17 18 21 23 21 21 23 24 23 24 25 27 29 32 32 31 31 29 27 26 25 23 23 23 22 20 17 16 17 17 16 16 15 13 10 9 9 8 7 8 8 8 6 4 3 2 3 3 3 4 4 6 7 6 6 6 6 5
6 7 10 12 14 15 14 14 15 15 16 17 17 17 19 21 22 22 23 25 26 26 25 24 22 19 17 16 17 21 23 24 25 27 27 26 27 28 29 30 33 32 30 30 29 26 25 24 21 20 20 19 18 15 14 12 11 10 9 8 9 9 9 10 10 9 8 8 7 6 4 2 2 3 4 4 4 4 5 6 6 6 6 5 4
9 10 12 15 16 16 16 17 17 17 17 17 17 17 19 21 22 23 24 26 27 27 25 25 24 21 17 14 15 18 20 21 23 26 28 28 27 27 27 27 28 29 27 26 26 24 22 21 20 18 17 17 16 14 12 11 9 9 10 11 13 14 12 11 10 9 7 6 6 4 3 2 2 4 4 4 4 3 4 5 5 5 6 6 5
14 14 16 18 19 18 18 18 19 20 19 18 18 18 20 22 22 22 24 26 26 25 24 25 25 24 20 15 13 15 16 17 18 19 22 23 21 20 20 19 21 25 26 24 23 23 22 20 19 17 15 15 16 14 12 11 10 11 13 15 15 14 13 13 12 11 9 7 6 5 3 3 2 1 1 2 2 2 2 3 4 4 4 4 5
18 19 18 17 17 19 21 21 20 20 19 20 20 20 21 22 22 21 23 24 24 22 23 24 24 24 23 20 17 15 15 16 16 15 17 19 17 14 13 14 18 23 24 22 21 22 22 20 16 15 15 16 17 16 14 13 13 12 13 14 14 14 15 15 13 12 11 8 7 6 5 4 4 4 4 4 4 4 3 3 3 4 5 5 6
19 21 20 19 19 20 21 20 20 19 19 20 22 23 23 22 22 21 21 22 21 21 22 23 23 24 24 23 21 19 17 17 17 16 16 18 18 16 14 15 19 21 23 23 22 22 24 22 19 18 18 18 18 18 16 14 14 13 13 13 14 15 17 16 14 13 12 11 9 8 7 7 7 7 7 6 6 6 6 6 5 5 6 6 7
18 19 20 21 22 22 20 19 19 20 20 20 23 25 24 22 22 21 20 20 20 21 22 22 22 24 24 23 23 22 20 19 18 18 18 18 20 20 21 22 23 24 25 27 27 27 27 26 22 21 21 20 19 19 17 15 14 13 13 13 14 16 17 16 15 14 12 11 10 8 8 7 6 6 7 7 7 7 7 7 7 6 6 7 7
19 20 20 20 20 21 22 21 20 20 20 21 23 25 24 22 22 20 19 19 21 21 21 21 22 23 24 23 23 22 21 20 19 19 20 19 20 22 24 26 27 27 28 29 29 28 28 26 24 22 22 21 19 18 18 16 15 14 14 13 14 15 13 12 13 12 11 9 8 6 6 5 5 5 6 6 6 6 6 6 6 6 6 7 7
18 20 20 21 20 20 22 22 21 21 21 21 23 24 23 22 21 18 16 18 20 20 20 21 22 23 23 23 22 22 21 21 20 20 21 21 21 22 23 25 27 28 28 28 28 28 28 26 24 23 22 20 19 17 17 15 14 13 13 13 13 12 10 8 8 8 8 6 5 4 3 3 4 4 5 5 6 6 7 7 7 7 7 7 7
15 17 19 20 20 20 20 21 22 22 22 22 22 22 21 20 19 17 16 17 17 18 19 20 21 22 22 22 22 22 21 21 21 21 22 22 22 22 22 23 25 26 26 24 23 24 25 25 23 22 21 19 18 17 16 15 13 12 11 10 10 9 8 6 5 5 5 4 4 4 4 4 5 7 7 8 9 10 11 11 11 11 10 10 10
14 15 17 18 19 18 18 18 19 20 22 22 22 21 19 18 17 16 16 17 16 15 17 18 19 20 20 20 21 22 23 22 22 22 23 23 22 22 22 22 21 22 22 21 20 21 22 23 21 20 19 18 17 16 15 14 13 12 11 10 9 8 8 7 6 6 6 5 5 6 6 7 9 10 10 11 12 12 13 13 13 13 13 14 15
15 15 15 16 18 18 18 18 18 19 21 22 23 21 18 16 15 15 14 15 17 16 16 17 18 18 18 18 19 21 22 24 24 24 24 24 23 24 23 22 21 21 21 20 20 20 20 20 19 18 17 16 16 15 14 13 12 12 11 11 10 9 9 8 8 8 7 7 7 7 7 8 9 9 10 11 11 10 11 12 12 12 12 13 14
13 13 14 15 16 16 17 17 17 18 19 20 22 22 17 13 13 14 13 13 17 19 19 19 20 20 20 19 20 20 21 22 23 24 24 25 24 24 25 24 23 22 22 20 19 17 17 17 17 16 15 15 15 14 13 12 12 11 11 10 10 10 9 9 9 10 10 10 10 10 10 9 9 9 10 10 10 9 9 10 10 10 10 10 10
11 12 13 14 15 15 14 15 16 17 18 18 19 21 18 12 11 13 14 13 15 18 20 20 21 22 22 22 22 22 22 23 23 23 23 24 23 23 23 24 22 21 20 19 17 15 15 15 15 14 13 14 14 13 12 12 11 10 11 12 12 12 11 11 13 14 15 15 15 14 14 13 12 13 13 13 13 12 11 11 10 9 8 8 8
8 10 11 13 13 13 12 14 16 18 19 19 20 21 20 16 12 12 14 16 15 16 18 20 21 21 22 23 23 24 24 25 25 25 26 25 24 23 24 24 22 20 18 17 17 17 15 14 15 15 14 14 14 12 11 10 9 9 11 13 14 14 14 15 17 17 17 17 17 17 17 17 17 17 17 17 16 15 14 12 11 10 10 9 9
6 8 10 11 11 12 12 14 17 19 21 22 23 21 20 18 15 12 13 15 16 15 15 17 19 20 20 21 22 23 23 24 25 26 26 26 25 24 25 24 23 21 19 17 18 18 17 16 17 17 16 15 13 10 7 6 6 8 10 12 13 14 15 17 17 17 16 17 18 19 20 19 18 17 17 16 15 14 13 13 12 11 10 9 9
11 10 9 8 9 11 12 14 15 16 19 22 24 23 20 17 15 13 11 12 15 17 16 14 15 17 17 18 19 19 20 20 21 22 23 24 24 24 24 23 22 21 20 19 18 18 17 17 17 17 16 15 13 9 6 4 4 6 8 11 14 15 16 16 15 13 16 18 19 20 20 18 17 16 16 14 13 12 12 12 11 11 10 9 9
Wind_Direction
159 156 157 163 171 175 173 173 177 184 187 187 191 195 192 186 186 185 179 177 182 189 193 189 187 193 200 204 210 210 204 202 202 202 204 206 204 201 199 195 191 189 187 184 185 186 180 175 173 173 177 183 187 181 175 179 186 178 158 156 165 167 165 166 166 159 144 127 122 127 138 156 169 182 185 184 187 191 194 198 201 197 194 195 193
155 156 160 168 174 174 171 172 177 182 185 189 195 198 193 187 183 180 176 178 185 191 193 192 191 194 200 203 207 211 211 208 208 206 202 204 205 203 199 195 191 190 192 191 189 188 182 178 178 177 181 189 189 182 178 176 180 180 162 155 162 166 163 166 171 165 150 140 132 120 110 120 138 159 167 175 186 190 195 203 206 203 200 199 197
165 165 170 176 179 178 173 176 182 184 186 191 198 199 195 190 185 180 176 177 187 193 192 194 198 200 199 201 204 210 211 208 209 207 202 201 202 204 201 198 196 195 195 195 192 191 188 184 182 183 186 191 188 180 179 178 178 181 171 160 163 167 163 167 175 176 158 145 133 125 117 109 123 151 157 169 189 194 198 202 202 205 206 201 197
173 174 178 182 184 184 179 180 183 184 186 192 196 198 196 193 189 183 178 180 189 194 196 199 205 206 200 199 205 211 210 206 205 205 203 201 199 202 203 200 200 199 197 196 195 193 192 190 187 187 188 190 192 186 181 180 179 180 174 166 166 165 161 170 182 187 171 154 134 111 118 110 163 162 129 141 183 188 197 204 201 203 203 200 198
174 178 182 186 189 190 186 185 185 186 190 193 195 195 193 193 195 189 182 184 189 193 198 203 207 210 205 199 203 209 208 203 203 205 204 201 200 201 203 202 200 197 196 197 195 194 193 192 190 190 190 190 193 191 186 183 181 180 177 173 171 167 164 175 185 195 190 174 157 141 130 135 198 152 126 121 170 178 184 197 199 200 196 194 198
175 178 180 183 187 191 191 192 192 194 197 196 195 194 192 194 198 195 188 187 189 190 196 202 207 211 207 200 202 204 202 202 204 205 205 203 204 205 203 201 198 193 195 197 195 194 191 189 191 192 192 190 189 190 189 186 181 180 181 180 177 171 168 176 187 200 201 192 184 173 166 206 166 149 142 117 162 176 179 184 190 192 186 185 191
176 181 181 182 182 188 197 201 202 204 205 203 201 197 195 198 199 198 193 190 190 190 193 199 203 207 208 205 206 206 203 206 208 206 207 207 207 208 206 201 197 193 194 194 192 191 189 188 193 193 190 189 185 183 184 183 181 181 182 184 181 173 171 179 190 198 197 201 211 209 248 239 172 161 162 151 144 174 180 182 185 182 179 180 184
175 176 175 165 140 74 296 248 245 305 351 328 240 213 206 209 207 201 196 191 191 191 192 198 201 204 207 206 207 214 214 211 207 206 208 210 209 209 207 201 196 194 193 192 190 189 188 189 193 193 189 185 179 176 176 175 176 178 180 185 186 182 181 184 187 188 190 199 208 217 253 213 174 171 170 154 131 138 159 169 181 179 178 181 183
98 92 64 52 53 41 25 1 349 360 5 358 333 274 239 232 221 208 199 192 191 191 191 194 199 201 202 201 206 222 230 217 207 207 208 210 213 210 206 201 197 196 195 194 192 189 190 193 193 192 188 181 174 174 175 174 176 178 180 184 187 189 192 192 187 185 192 200 198 203 211 173 162 168 167 154 136 144 149 146 167 170 175 183 186
68 73 75 80 82 81 83 72 348 338 344 352 352 333 297 270 239 216 206 198 193 194 191 185 186 194 197 198 205 217 230 227 210 204 204 204 210 207 200 198 198 199 198 196 195 192 193 196 194 191 188 180 174 174 176 179 182 182 182 183 186 193 197 197 192 188 196 203 196 191 185 168 156 152 162 158 144 143 138 142 158 155 162 182 186
84 83 79 81 86 98 127 153 197 222 231 245 300 315 312 302 266 219 204 198 196 195 188 177 175 189 201 202 202 205 216 226 211 197 196 196 202 203 195 195 199 202 201 197 197 197 196 195 193 190 187 182 177 176 178 181 184 185 186 186 189 194 197 197 194 190 194 201 196 193 190 182 178 176 172 166 158 148 135 142 159 158 154 166 178
73 68 63 66 73 92 146 186 214 224 223 223 239 237 233 259 282 259 218 190 195 198 187 180 182 194 208 209 205 202 207 216 211 199 194 192 196 198 193 195 200 202 202 200 198 198 196 191 189 187 186 184 180 177 180 180 182 186 189 190 192 193 194 195 194 192 195 199 196 196 198 192 190 191 183 177 172 163 154 149 157 157 150 155 166
63 57 49 45 37 46 103 188 233 243 240 231 252 249 235 228 227 259 243 211 206 207 191 188 198 203 206 204 200 203 207 210 211 207 200 195 194 195 195 195 196 199 201 199 194 189 188 185 183 184 184 182 179 179 184 184 184 186 187 188 191 191 191 191 193 194 197 201 199 198 200 197 194 198 195 189 181 165 154 149 156 157 145 142 152
66 61 55 52 28 60 140 178 220 242 234 215 247 265 256 246 226 218 227 219 216 211 198 202 209 206 201 196 191 198 207 208 206 208 205 200 198 198 198 193 191 195 194 188 183 179 177 176 175 176 176 175 177 182 186 187 188 189 186 186 189 189 189 190 193 195 197 201 202 201 203 204 201 202 199 193 186 172 159 152 151 148 138 140 144
51 52 58 55 7 273 212 212 226 246 223 202 218 236 240 254 253 219 221 229 214 188 190 207 212 208 202 195 190 196 207 207 203 207 206 203 202 200 197 194 191 189 183 177 174 171 169 168 167 168 169 168 173 181 183 184 186 184 177 177 182 184 185 187 192 196 196 198 202 203 203 204 201 197 197 197 196 189 175 163 155 142 130 144 142
29 22 22 3 349 343 326 290 252 249 198 190 201 208 203 223 253 239 246 253 195 166 187 206 211 214 207 196 193 198 205 205 204 206 206 204 204 201 199 196 190 183 177 172 169 167 166 167 169 172 173 170 171 177 177 175 173 171 167 166 173 179 182 185 193 201 202 199 202 205 201 197 195 194 197 200 202 198 185 172 163 157 150 148 139
41 29 18 358 352 355 352 336 295 270 174 167 182 188 182 190 212 207 230 231 168 183 208 212 208 213 210 198 196 199 198 199 200 201 204 206 204 204 202 195 185 179 178 175 170 171 171 167 164 164 167 166 165 172 174 172 170 170 171 171 174 180 184 187 196 205 205 202 203 205 202 197 196 200 200 198 200 196 187 179 174 169 162 152 146
52 45 33 13 7 5 1 353 322 300 272 128 149 165 169 181 184 177 185 189 189 204 214 213 209 207 204 199 196 199 194 192 195 194 197 202 202 203 197 187 181 176 174 173 171 173 173 168 163 158 159 158 156 163 170 174 178 179 180 180 182 185 186 191 199 201 201 202 205 207 208 207 205 204 198 193 195 194 188 184 184 181 173 165 161
53 49 38 19 13 4 0 3 356 345 357 31 91 151 172 176 167 167 191 195 198 211 207 203 210 207 202 198 195 196 193 191 195 192 193 194 194 197 189 179 176 174 171 168 166 167 169 170 170 166 164 162 157 156 162 173 181 183 179 177 181 183 180 180 182 187 194 199 205 209 207 204 203 197 190 188 191 193 192 189 190 189 186 182 172
45 43 32 19 14 10 15 20 22 26 18 15 12 348 254 198 168 144 175 188 188 204 200 194 206 207 200 195 192 193 191 192 195 190 188 184 184 197 189 176 175 174 172 171 169 170 171 173 176 178 177 171 162 157 158 166 171 167 162 160 167 172 171 170 169 173 185 192 198 200 193 191 190 187 188 189 192 194 195 196 197 195 195 196 184
40 39 30 23 20 16 24 28 28 33 29 22 11 352 324 265 223 156 169 182 182 191 193 192 201 203 197 192 190 189 190 194 191 183 183 177 178 197 192 176 174 174 173 176 176 176 176 177 179 180 177 171 166 162 158 158 156 154 156 160 164 170 172 173 172 175 181 182 185 185 182 183 184 183 187 192 195 196 197 200 201 200 201 202 194
38 38 31 28 25 20 22 25 29 34 29 27 25 15 10 339 290 190 178 184 182 185 189 192 196 197 196 194 192 191 192 193 184 179 184 179 177 191 188 176 172 173 174 177 175 174 176 177 174 170 169 169 169 168 162 158 157 158 165 171 174 179 182 179 178 180 181 177 178 180 180 182 182 182 184 188 193 195 199 203 202 204 207 207 202
40 39 32 28 27 24 23 22 24 29 27 26 27 23 24 17 338 251 210 195 189 190 189 191 194 194 196 197 197 197 193 188 182 179 182 178 177 183 181 173 171 170 171 172 171 172 172 171 168 164 163 164 165 168 165 163 166 169 174 178 184 190 187 183 185 188 186 183 182 180 180 181 182 183 186 189 191 194 204 208 207 211 215 212 209
38 38 33 29 29 26 23 18 14 19 24 24 26 28 28 25 8 300 265 245 231 219 203 196 194 193 197 199 200 198 192 186 182 177 173 171 172 175 175 173 170 167 167 170 171 170 169 167 164 162 162 158 158 164 165 167 172 176 182 187 194 198 194 188 188 189 186 186 188 184 180 180 183 184 185 189 198 211 226 219 216 219 218 214 211
34 34 31 27 28 25 19 14 10 12 19 23 24 26 25 22 358 277 266 256 247 238 224 212 203 199 199 199 199 196 189 183 178 172 169 168 169 170 171 171 169 167 169 172 169 165 165 164 162 165 165 157 158 163 166 169 171 173 182 185 182 185 185 180 180 182 178 178 185 185 181 181 182 181 178 162 189 217 225 218 217 215 207 205 206
36 33 33 27 25 22 16 15 13 12 15 21 23 23 23 23 5 302 305 304 274 243 233 227 219 215 206 200 198 191 182 178 175 170 168 169 168 168 170 170 168 168 170 170 167 163 161 162 165 168 164 157 160 161 162 169 169 166 170 168 168 175 175 171 174 176 172 170 174 175 175 177 173 157 138 118 119 144 164 175 186 191 192 196 200
38 35 36 32 26 19 14 13 14 16 16 18 21 21 22 21 11 359 359 347 310 282 270 255 243 235 217 206 200 186 177 178 176 172 170 172 170 168 170 170 167 168 169 170 173 169 164 162 163 163 160 162 167 163 164 174 175 170 163 152 160 172 168 165 167 167 163 157 158 160 158 155 142 116 109 112 113 120 129 146 164 171 179 188 195
38 35 32 29 24 15 14 15 16 17 17 18 20 21 22 23 16 8 10 6 338 307 299 296 280 260 226 213 201 180 176 182 179 174 172 173 171 169 172 173 171 170 171 175 178 176 172 168 165 165 166 170 172 169 169 174 173 171 164 146 145 154 157 160 160 156 154 149 147 148 140 132 124 113 110 110 108 108 111 119 140 157 165 173 182
36 33 26 20 17 12 13 19 20 18 17 17 18 19 22 23 19 14 13 10 355 326 311 316 287 251 218 201 191 176 177 185 183 178 172 170 171 172 175 177 175 172 171 173 176 176 176 173 170 172 175 176 176 173 171 172 172 169 158 143 140 144 149 156 154 146 144 142 139 136 130 125 119 113 112 113 108 102 101 103 108 118 131 149 164
30 27 21 15 17 17 20 25 26 21 20 19 17 18 22 22 21 21 20 17 9 350 307 291 251 209 177 175 178 173 172 173 173 176 175 173 173 174 175 175 173 172 170 169 169 170 172 172 171 171 174 175 176 174 172 170 167 160 148 137 134 136 139 144 145 142 139 136 132 128 125 126 126 120 113 108 105 98 92 99 109 112 107 106 119
23 19 13 11 20 24 24 27 26 24 26 26 23 24 25 24 25 25 25 27 28 30 50 195 193 174 158 161 167 165 163 160 160 169 177 183 180 175 173 172 171 169 168 167 164 161 161 163 162 160 161 163 165 165 161 155 152 153 149 139 131 132 134 137 140 142 139 134 130 128 126 125 125 127 123 107 97 89 71 58 168 168 155 136 111
23 17 5 3 14 21 23 24 22 24 29 29 29 32 30 26 27 29 32 38 41 44 57 80 119 140 143 150 160 163 162 160 160 165 173 181 180 176 173 171 168 163 161 159 154 150 149 149 149 146 143 142 143 143 141 141 143 148 149 142 134 133 133 134 138 140 138 134 132 133 134 131 145 233 243 237 245 252 264 272 261 235 215 192 169
22 14 6 5 7 14 25 29 29 30 31 31 33 36 34 30 33 38 41 45 47 47 52 57 59 77 112 133 150 159 158 158 162 166 165 161 162 163 163 162 159 153 150 146 142 141 139 138 139 136 130 127 127 128 129 131 135 139 139 134 127 126 127 127 128 129 129 129 127 127 138 169 203 227 233 231 243 251 257 256 244 228 213 188 176
11 8 11 10 10 20 32 37 38 39 41 45 46 43 42 41 42 46 47 47 49 49 50 55 59 62 83 110 132 141 139 137 145 151 151 147 145 145 145 145 144 141 138 134 132 131 129 128 130 129 125 123 122 120 120 121 123 126 128 124 116 112 112 110 106 107 116 120 106 99 114 151 184 209 215 222 238 248 251 253 251 237 222 213 211
7 10 14 13 17 26 32 38 45 47 47 49 50 48 51 51 49 50 49 48 51 51 49 53 59 63 69 84 104 118 121 122 125 130 131 129 127 124 125 128 131 130 128 127 126 125 123 123 123 125 125 122 120 120 121 120 119 118 118 112 105 101 102 104 108 113 117 115 105 104 121 158 198 227 239 245 246 245 246 250 251 241 228 224 231
12 17 20 21 27 32 33 42 53 56 53 50 48 50 56 57 55 53 51 51 52 51 49 51 55 61 70 78 87 100 110 115 118 120 118 113 111 112 115 119 122 123 123 123 123 121 120 119 119 123 124 119 116 119 123 125 126 131 131 115 110 123 128 125 128 129 122 115 115 121 131 158 224 248 260 269 264 253 254 259 254 241 232 234 246
22 27 32 35 39 44 46 51 56 57 57 56 53 54 58 60 59 57 55 55 53 48 47 51 54 60 71 83 90 95 101 107 111 116 116 112 107 107 109 112 114 115 116 116 116 114 114 114 114 115 117 115 112 112 121 130 136 149 159 153 141 140 141 139 140 140 137 136 136 144 158 180 228 254 267 280 287 279 269 275 275 261 247 242 249
30 31 35 38 41 47 50 54 56 56 58 61 60 57 58 59 58 57 58 58 55 49 48 53 56 61 69 80 92 98 100 102 103 108 113 115 110 104 104 108 110 111 111 111 110 110 107 105 103 100 103 109 108 108 119 130 132 139 150 152 148 142 139 141 142 137 137 143 145 154 171 167 168 215 282 317 328 332 306 288 290 287 272 257 263
41 37 34 32 36 45 49 50 51 51 55 60 61 58 57 56 54 56 58 59 56 53 54 57 59 64 69 76 87 97 101 102 104 108 113 118 121 119 118 121 119 116 114 113 113 110 104 100 98 98 102 106 106 106 113 122 130 140 148 148 148 146 140 138 137 131 128 130 127 123 113 99 91 79 63 50 36 33 30 16 344 328 323 312 302
52 49 46 40 37 40 42 41 42 48 55 59 60 58 55 53 55 56 56 57 59 60 63 65 67 69 70 72 79 89 95 97 102 110 115 121 129 135 137 132 125 120 118 118 117 113 107 105 107 108 105 103 102 101 103 112 124 135 143 146 150 151 146 138 130 124 122 118 110 101 91 82 75 67 60 50 42 37 33 32 25 10 1 350 338
62 60 57 52 44 39 36 33 37 48 55 58 61 59 53 52 56 55 52 58 65 68 69 72 72 71 71 72 74 80 87 92 98 109 117 122 128 135 138 133 126 123 120 117 114 111 107 105 105 104 100 97 97 96 96 101 110 119 131 141 145 147 146 140 128 120 116 111 103 94 84 75 64 53 46 37 33 30 25 23 22 16 12 1 352
62 63 61 56 48 42 38 34 36 45 51 56 61 60 54 53 55 54 55 63 69 71 72 73 74 72 71 71 73 76 82 88 94 104 111 114 119 126 129 128 126 124 121 115 112 111 108 103 100 98 96 94 94 94 94 96 101 108 116 123 125 127 134 136 128 118 111 106 98 86 73 60 45 35 32 33 37 38 35 33 27 20 16 8 0
61 59 59 56 49 40 36 34 37 43 49 53 58 59 55 53 54 58 66 69 70 72 73 71 72 73 73 73 73 75 80 84 89 97 102 103 107 112 114 116 120 119 116 113 112 111 109 104 98 95 94 93 91 91 91 92 95 101 107 111 115 117 120 125 122 112 104 97 88 76 62 52 45 46 53 58 61 60 59 56 49 41 33 26 20
70 64 61 60 55 46 39 37 37 42 46 49 52 55 53 49 51 63 77 77 72 72 71 68 68 70 73 76 78 78 81 85 88 94 98 98 100 102 103 106 111 111 110 108 107 107 106 102 98 95 93 93 92 90 89 88 88 93 97 101 107 110 109 109 108 102 94 87 84 82 81 83 84 81 80 78 74 73 72 69 66 63 59 52 45
72 70 66 63 60 55 48 42 39 41 45 45 46 48 46 43 48 62 74 75 72 71 72 73 71 68 69 74 79 82 84 87 90 93 95 94 96 98 99 101 105 106 106 105 103 101 99 97 95 93 92 94 94 92 91 91 91 92 95 98 99 96 93 91 93 98 93 87 94 104 106 104 98 91 88 86 82 81 81 79 77 75 69 61 53
71 70 69 66 63 58 51 46 41 40 44 45 46 45 41 39 47 58 66 69 70 73 79 80 78 75 73 74 79 83 85 87 89 91 92 94 96 98 98 99 102 105 108 110 108 103 98 95 93 91 90 92 94 94 95 96 98 99 99 100 97 91 88 89 91 95 96 97 106 114 113 107 100 94 92 89 86 87 89 87 84 78 71 63 55
75 73 72 68 63 57 49 44 40 38 40 43 45 44 43 44 50 56 63 71 73 77 82 83 81 81 81 81 84 87 88 88 87 88 88 90 93 95 95 94 96 101 107 111 111 105 98 95 92 90 89 88 88 91 94 96 100 101 99 97 93 90 92 97 99 100 100 102 106 105 100 98 98 97 94 87 83 88 93 92 85 77 72 67 59
86 82 79 75 69 63 54 45 39 34 35 40 43 44 46 52 60 62 67 78 84 85 85 84 82 81 83 86 88 90 91 90 89 88 87 85 85 88 88 86 87 92 98 101 101 96 92 91 90 89 87 84 81 82 86 91 95 97 95 92 87 85 91 98 101 103 104 104 105 103 99 99 100 98 94 88 84 84 86 86 82 75 74 78 72
90 81 79 80 77 73 65 53 45 43 45 48 49 47 47 53 64 68 69 76 87 95 92 87 83 82 84 87 88 89 90 91 90 89 87 85 84 84 84 83 83 84 87 90 91 88 85 86 87 84 81 79 76 73 79 88 93 95 96 92 83 84 95 102 103 106 109 108 103 97 92 90 90 88 84 79 77 77 77 77 76 72 71 75 76
102 95 88 84 80 77 70 57 52 54 55 51 48 45 46 50 57 63 67 73 84 97 101 95 90 88 88 87 87 88 89 90 91 92 91 89 87 85 84 84 83 82 82 83 85 85 84 83 83 79 75 74 71 69 72 81 89 96 98 91 86 91 101 104 104 106 105 99 93 86 80 77 76 75 71 67 65 65 66 64 63 64 66 69 71
94 102 96 83 77 74 64 53 53 59 57 50 45 42 41 44 49 55 59 66 77 91 99 99 96 94 93 91 89 89 90 91 92 94 94 93 92 88 85 84 84 84 83 83 84 86 85 81 78 75 73 71 66 60 54 56 84 104 102 97 99 105 104 101 102 103 95 88 85 83 78 74 72 70 65 60 57 54 54 54 55 59 66 69 69